Wind_Speed
29 29 30 31 31 31 31 30 30 30 31 30 29 28 28 27 28 29 30 31 33 33 33 32 31 31 30 30 30 31 31 30 28 27 27 28 27 28 28 29 29 28 25 22 21 19 16 16 16 17 18 20 20 19 19 19 19 19 18 17 16 16 16 16 15 15 14 13 12
29 30 30 31 31 31 30 29 29 30 30 30 30 30 29 29 29 29 30 31 31 31 30 28 28 28 28 28 29 31 31 30 29 28 28 28 28 27 28 28 27 24 21 18 18 18 19 19 20 20 20 20 19 19 19 19 19 19 18 17 17 17 16 16 15 14 13 12 10
29 30 30 31 31 30 30 28 29 30 30 31 31 31 30 30 30 29 29 29 29 29 27 26 26 27 28 28 29 30 30 30 30 29 29 30 29 28 27 26 24 22 20 18 18 20 21 21 22 23 23 21 20 20 20 20 19 19 18 18 18 17 17 16 15 13 12 10 9
29 30 31 31 32 32 32 30 31 32 32 32 31 31 30 30 29 27 26 26 26 26 26 26 26 27 27 28 28 29 29 29 29 29 30 31 31 30 28 26 23 21 19 18 19 21 22 22 24 25 25 23 21 21 21 21 20 19 19 19 18 17 16 15 13 11 10 9 9
30 31 32 33 34 35 34 33 32 33 33 32 31 29 29 28 26 25 24 25 25 25 25 26 26 27 27 27 27 28 28 28 28 29 30 31 31 30 28 25 23 21 20 20 21 23 24 24 26 26 25 23 22 22 22 22 21 20 19 18 17 16 14 12 11 10 9 9 9
30 31 33 33 34 35 34 33 33 33 32 31 29 28 27 26 25 24 24 25 26 26 25 25 26 27 27 27 27 27 28 28 28 29 30 31 30 29 27 25 23 22 22 23 24 25 26 27 27 25 24 23 23 23 24 23 22 21 20 18 16 14 12 11 10 10 10 10 11
30 31 33 33 34 34 34 32 31 31 29 28 28 27 27 26 25 25 25 25 26 26 26 26 27 27 27 27 27 27 28 28 29 29 30 31 30 28 25 24 24 24 25 26 27 28 28 28 27 25 24 23 24 24 24 23 22 21 19 17 15 13 12 11 11 11 11 11 11
29 30 32 33 33 33 33 31 29 28 27 27 27 27 27 26 26 26 26 26 26 26 27 27 28 28 28 28 28 28 29 29 29 30 30 30 29 27 26 25 26 27 28 29 29 29 28 27 25 25 25 25 25 25 24 23 21 20 18 16 15 13 12 12 12 11 11 10 10
27 29 30 31 31 31 30 29 27 26 26 26 26 27 26 26 26 27 26 26 26 26 27 27 28 28 28 29 29 30 30 30 31 30 30 29 28 27 27 28 29 30 30 29 29 28 26 25 24 24 25 26 26 25 23 21 19 18 16 15 15 14 13 13 12 11 10 9 8
26 28 29 29 29 28 26 25 24 24 24 24 25 25 25 25 26 26 26 27 26 26 27 28 28 28 28 29 30 30 31 31 31 30 29 28 27 27 28 30 31 31 31 29 27 26 25 24 24 25 26 26 25 24 22 19 17 16 15 15 15 15 14 13 12 11 10 9 8
25 27 27 27 25 24 23 22 22 22 22 22 23 23 24 24 25 26 26 26 26 26 27 28 29 29 29 29 30 30 31 31 31 30 29 28 28 29 30 31 31 31 30 28 26 25 24 25 25 26 26 25 24 22 20 18 16 15 15 15 15 15 14 13 12 11 10 9 8
24 25 25 24 23 22 21 21 20 20 20 21 22 22 23 23 24 25 25 26 26 26 27 28 28 29 29 29 29 30 30 30 30 29 29 29 29 30 30 30 30 29 28 27 25 25 25 26 26 27 26 25 23 21 20 18 17 17 16 16 15 14 14 12 12 11 10 8 7
23 23 23 22 22 21 20 20 19 19 19 20 21 22 22 23 24 24 25 26 27 27 27 27 28 29 29 29 29 29 29 29 29 29 29 30 30 30 30 29 29 28 27 26 25 25 25 26 26 27 25 24 22 20 19 19 18 18 17 16 15 14 13 12 11 9 8 6 5
22 22 22 22 21 21 20 19 19 19 19 20 21 21 22 23 23 24 26 27 27 26 26 27 28 28 28 28 28 29 29 29 29 29 29 30 31 30 29 28 28 27 27 26 26 25 25 26 27 26 25 24 22 21 19 19 18 17 16 15 14 12 11 10 9 7 6 5 4
21 22 22 22 21 21 20 20 19 19 19 20 21 22 22 23 24 25 26 27 27 26 26 27 27 28 28 27 28 28 29 29 29 29 29 29 30 29 28 27 27 27 27 27 27 27 27 27 27 27 25 24 22 21 19 18 17 16 14 13 12 11 10 8 7 6 5 4 3
20 21 21 21 21 21 21 20 20 20 20 21 21 22 22 23 24 25 26 27 27 26 26 27 27 27 27 26 27 28 28 28 29 28 28 28 28 28 27 27 27 27 28 29 29 29 29 29 28 26 25 24 22 20 18 17 15 14 13 11 10 9 8 7 6 5 4 3 2
19 20 21 21 21 21 21 21 21 21 21 21 22 22 22 23 24 25 26 27 27 26 27 27 27 27 27 26 27 27 27 28 28 28 28 28 27 27 27 27 28 29 30 30 31 30 29 28 27 25 24 23 21 19 17 15 14 13 11 10 9 8 7 6 5 4 3 2 2
18 19 20 20 20 21 21 22 22 22 22 22 22 22 23 24 24 25 25 26 26 27 27 27 26 27 27 27 27 27 27 28 28 28 28 28 28 28 28 29 29 30 30 31 30 29 28 26 25 24 23 22 20 18 16 14 12 11 10 9 8 7 6 5 4 3 2 2 2
18 19 19 19 20 21 22 22 22 22 22 22 23 23 23 24 25 25 25 25 26 26 27 26 26 26 27 26 26 26 26 27 27 27 27 28 28 29 29 30 30 30 30 29 28 27 26 25 24 23 22 21 19 17 15 13 11 10 9 8 7 6 5 3 2 2 2 2 3
17 18 18 19 20 21 22 22 22 22 22 22 23 23 23 24 24 25 25 25 25 26 26 26 26 26 26 26 25 25 25 25 26 26 27 27 28 28 29 29 30 29 29 27 25 24 24 23 23 22 21 20 18 16 14 12 11 10 9 7 6 5 3 2 1 2 3 3 4
17 17 18 19 20 21 21 21 21 22 22 22 22 23 23 24 24 24 25 25 25 25 25 26 26 26 25 25 25 24 24 24 25 25 26 27 27 27 28 29 28 28 26 25 24 23 23 23 22 21 20 18 17 16 14 12 11 10 8 7 5 4 2 2 2 3 4 4 5
16 16 18 19 20 21 21 21 21 21 22 22 22 22 23 23 23 24 24 25 25 25 25 25 25 25 25 25 24 24 23 23 24 25 25 26 26 26 27 27 27 26 25 24 23 23 22 22 21 19 18 17 16 15 13 12 11 9 8 6 4 3 2 2 2 3 4 4 5
15 16 18 19 20 20 20 20 21 21 22 21 21 21 22 22 22 23 24 24 24 24 24 24 24 24 24 24 24 24 24 24 24 25 25 26 26 26 26 25 25 25 24 24 23 23 22 21 20 18 17 17 16 14 13 11 10 8 7 6 4 3 2 2 2 2 2 3 5
16 17 18 19 19 20 20 20 21 21 21 21 21 21 21 21 22 22 23 23 24 24 24 23 23 24 24 23 24 24 25 25 26 26 26 26 26 26 25 25 24 24 24 24 23 23 22 21 20 18 17 16 15 14 12 10 9 8 7 6 5 4 3 2 1 1 3 5 6
16 17 18 19 19 19 20 20 20 21 21 20 20 20 21 21 21 22 23 23 23 23 23 23 23 23 23 24 24 25 26 27 27 27 27 26 26 26 25 25 25 24 23 23 22 21 20 20 19 18 17 16 14 13 11 10 9 8 7 6 5 4 3 2 2 4 6 8 10
17 18 18 19 19 19 19 20 20 20 20 20 20 20 21 21 21 22 22 23 23 23 23 24 23 23 24 25 25 26 27 27 28 28 28 27 26 26 26 25 25 24 23 21 20 19 19 18 18 17 16 14 13 12 11 10 9 7 6 5 4 3 3 4 6 8 10 11 12
18 18 18 19 19 19 19 19 20 20 20 20 20 20 21 21 21 21 22 22 23 23 23 24 24 24 24 25 26 27 27 27 28 28 28 28 27 27 26 25 24 23 21 20 19 18 17 17 16 14 13 12 12 11 10 9 7 6 4 4 4 4 5 7 8 9 10 10 10
18 18 19 19 19 19 19 19 19 19 19 20 20 20 21 21 21 22 22 23 23 24 24 24 24 24 25 26 27 27 28 28 28 28 28 28 28 27 26 25 23 22 20 19 19 18 16 15 14 13 12 11 10 9 8 6 5 4 3 3 4 5 6 7 8 8 8 7 6
18 18 19 19 19 19 19 19 19 19 20 20 20 21 21 21 22 22 23 23 24 24 24 24 24 25 26 27 27 28 28 28 28 29 29 28 27 26 25 24 23 21 20 19 18 17 16 14 13 12 11 9 9 7 6 4 3 2 2 3 4 5 6 6 5 4 3 2 2
18 18 18 19 19 19 19 19 19 20 20 20 21 21 21 22 22 23 23 23 24 24 24 25 25 26 27 28 29 29 29 29 29 29 29 28 27 25 24 23 22 21 20 18 17 17 15 14 12 11 9 8 7 6 4 2 1 2 3 4 5 5 4 2 1 0 1 1 1
17 18 18 19 19 18 19 19 20 20 21 21 22 22 22 22 22 23 23 23 24 24 25 26 28 28 29 29 29 29 29 29 29 28 28 27 26 25 24 23 22 21 19 18 17 16 15 13 11 10 8 7 5 4 3 3 4 5 5 5 4 3 2 1 1 1 0 0 1
18 18 19 19 19 19 19 20 20 21 21 22 22 22 22 22 22 23 23 24 25 26 27 28 29 30 30 30 30 30 30 29 28 27 27 26 26 25 24 23 21 19 17 17 16 16 14 12 10 9 7 6 4 4 4 5 6 6 5 4 3 3 2 2 1 1 1 1 1
19 19 20 20 20 20 20 20 21 21 22 22 22 22 22 22 23 23 24 25 26 27 28 29 30 30 30 30 30 30 29 28 28 27 27 27 27 26 24 22 20 18 17 16 16 15 13 11 9 8 6 5 4 4 5 6 6 6 4 4 3 3 2 2 2 2 2 2 3
20 21 21 22 21 21 21 21 22 22 22 22 22 22 22 23 23 24 24 25 27 28 29 30 30 30 31 31 31 30 29 28 28 27 27 27 26 25 23 21 19 17 16 16 16 15 12 10 8 7 6 5 4 5 6 6 6 5 4 4 3 3 3 3 3 3 3 3 4
22 23 23 23 22 22 22 22 22 23 23 23 23 23 24 24 24 25 25 26 27 28 28 29 29 30 30 30 30 30 30 29 28 27 26 25 24 23 22 20 18 17 16 16 15 14 11 9 7 6 5 5 5 6 6 6 5 4 4 4 4 4 4 3 3 3 4 4 5
23 24 24 23 23 23 23 23 23 23 24 24 24 24 24 25 25 26 27 27 28 28 28 28 29 29 29 30 29 29 29 28 27 26 25 23 23 22 21 20 18 17 16 15 14 11 9 7 6 5 5 6 7 7 6 5 5 5 5 5 5 4 4 4 4 4 4 5 5
23 24 24 24 23 23 23 23 24 24 24 24 25 25 25 25 26 26 27 28 28 28 28 28 29 29 29 29 29 28 28 27 26 25 24 22 22 22 21 20 18 16 14 13 11 9 7 6 6 6 7 7 7 7 6 6 6 6 6 5 5 4 4 3 4 4 4 5 5
23 23 24 24 24 24 24 24 24 25 25 25 25 25 25 25 25 26 26 27 28 28 28 29 29 29 29 29 28 27 26 25 24 24 23 22 21 20 20 18 17 15 13 11 10 8 7 6 6 7 7 7 7 7 7 7 7 6 6 5 4 4 3 4 4 5 5 5 5
22 23 24 24 24 24 24 24 25 25 25 25 25 25 25 25 25 25 25 27 28 29 29 29 29 28 28 28 27 26 24 23 22 21 21 20 19 18 17 17 15 14 12 11 9 8 7 7 7 7 7 7 8 8 8 8 7 7 6 5 4 4 4 5 5 6 6 6 5
22 23 24 24 24 24 24 25 24 24 25 25 25 25 25 25 25 25 26 27 28 30 30 29 29 28 27 26 25 24 22 21 19 19 18 18 17 16 15 14 14 13 11 10 9 8 7 7 7 7 7 7 8 8 8 8 7 7 6 5 5 5 5 6 6 7 7 7 6
22 23 23 23 24 24 24 24 24 24 25 25 25 25 25 26 26 26 27 27 28 29 29 29 28 26 25 24 23 22 21 20 18 17 16 16 15 14 13 13 12 12 11 10 9 8 8 8 7 6 6 7 7 8 8 7 7 7 6 5 5 5 6 6 6 6 6 7 7
Wind_Direction
214 213 212 212 212 212 211 211 212 212 212 211 210 209 207 205 206 207 208 208 209 210 211 212 211 209 206 205 205 204 203 204 204 203 201 199 199 199 197 194 192 193 197 206 216 216 202 183 179 188 202 210 212 212 210 208 205 204 203 201 196 192 187 182 179 178 177 177 179
213 213 212 212 213 213 212 212 212 213 213 213 213 211 209 207 207 207 208 208 208 209 209 208 206 204 202 203 203 203 202 202 202 200 198 198 198 197 194 190 189 192 198 206 209 205 193 180 179 186 198 207 211 211 209 207 205 202 200 196 191 187 183 179 177 176 176 178 183
212 212 211 211 211 211 211 211 213 213 214 214 215 213 211 210 209 209 209 208 208 207 206 203 201 200 200 201 201 201 201 201 201 199 197 197 197 196 192 189 190 196 203 207 207 201 193 188 186 189 195 202 207 208 207 205 203 201 196 191 186 182 178 175 174 175 179 186 194
212 211 210 210 211 212 212 212 213 214 215 215 215 214 212 211 210 209 208 206 205 204 202 200 197 197 198 198 198 198 199 200 200 198 196 195 195 193 191 190 195 199 202 204 205 201 197 198 193 191 193 197 200 203 204 202 199 196 192 186 182 178 175 173 175 180 187 191 193
211 211 211 211 213 215 215 215 214 215 215 215 214 212 211 210 208 206 205 203 202 201 199 197 194 194 195 195 195 195 196 197 196 195 194 192 190 189 187 189 196 199 201 203 202 201 200 199 192 190 191 193 196 198 199 198 195 191 187 182 178 176 176 177 181 186 187 185 182
211 211 212 213 215 216 216 216 216 215 214 213 211 209 208 208 205 203 201 200 199 197 195 192 192 191 191 192 192 192 192 192 193 193 192 189 187 185 186 191 194 197 199 201 198 197 195 191 188 187 188 190 193 194 194 194 190 187 182 178 175 176 180 183 184 182 178 176 175
212 212 212 213 215 215 215 215 215 214 212 210 208 207 206 205 202 200 199 198 196 193 190 189 190 189 189 189 189 189 189 189 190 190 189 187 185 184 187 192 195 196 197 196 192 189 186 186 184 184 185 188 190 190 189 188 186 184 181 176 175 177 179 179 176 173 171 171 172
214 213 213 214 215 215 215 214 212 211 209 207 207 206 205 202 200 198 197 195 191 189 187 188 189 189 188 186 186 186 187 187 187 187 186 185 183 185 190 194 195 193 192 190 186 184 183 183 181 180 182 185 185 184 183 182 183 184 181 176 173 172 172 169 165 163 164 167 170
214 214 215 215 215 214 213 211 210 208 207 206 205 204 202 200 198 196 194 191 188 186 186 187 188 188 186 185 185 186 187 187 186 184 183 183 184 188 192 193 191 188 186 185 183 181 179 178 177 178 180 182 181 179 177 178 181 182 179 172 167 164 161 158 155 154 158 164 167
214 214 214 213 213 212 210 208 208 208 206 204 203 201 199 198 196 194 192 189 186 185 185 186 186 185 184 184 186 187 188 187 186 183 182 184 188 192 193 191 188 185 182 181 180 178 175 174 175 176 178 180 178 175 172 173 176 175 170 165 160 156 153 150 149 152 158 165 170
214 213 211 209 208 208 207 205 205 205 204 200 198 196 195 194 193 191 189 187 184 183 184 186 184 183 182 184 186 187 187 186 185 184 184 187 191 193 191 188 185 182 180 178 175 173 173 173 174 175 177 177 174 170 167 168 169 167 163 160 157 154 153 153 157 164 171 179 184
212 209 206 204 204 204 202 201 201 200 198 195 193 191 190 190 189 188 186 184 183 183 184 184 183 182 183 184 185 185 185 184 183 184 186 188 190 189 187 184 182 179 176 173 170 170 172 174 175 175 174 172 167 164 163 163 163 161 160 159 161 162 163 166 172 179 185 189 190
207 203 200 199 199 199 198 196 195 193 191 188 187 186 186 186 186 185 183 182 182 182 182 183 182 182 182 183 182 182 181 181 183 185 186 187 187 185 183 180 178 175 171 168 167 169 172 174 175 174 170 164 161 160 159 159 160 161 162 165 169 173 175 177 180 183 184 183 179
202 198 195 194 194 193 191 190 189 187 184 182 181 181 182 182 182 183 183 182 182 180 179 179 179 180 181 182 181 180 180 181 183 184 184 184 184 182 179 177 174 170 167 165 166 169 171 173 173 170 165 160 158 157 157 158 161 165 169 173 177 178 178 176 175 173 170 167 167
198 194 191 189 188 187 185 184 182 180 178 177 177 178 179 178 179 181 182 182 183 181 179 176 176 178 180 181 181 181 181 182 183 183 182 181 180 179 176 173 170 166 164 163 166 169 171 170 168 165 162 159 157 157 158 160 165 171 176 179 178 174 169 164 162 160 159 161 169
194 190 186 183 182 182 181 180 178 177 175 174 175 176 175 176 177 179 180 180 180 179 178 176 176 177 178 180 182 182 182 182 181 180 179 178 176 174 171 168 166 164 163 164 167 169 170 169 166 164 163 162 160 160 162 165 171 176 178 176 170 163 157 153 152 153 155 162 182
189 185 181 179 179 178 177 176 176 176 175 174 174 174 173 174 176 178 179 179 178 176 175 176 176 177 177 179 181 182 181 181 180 179 177 175 171 168 166 164 164 164 165 167 167 168 168 168 168 168 167 165 163 163 167 172 175 175 170 163 156 151 149 148 149 153 160 178 210
184 180 178 176 176 177 177 176 175 174 174 173 173 172 173 174 174 175 177 178 177 175 174 174 175 177 177 177 178 180 180 179 179 177 175 171 168 165 164 164 165 166 167 168 168 168 168 169 170 170 167 164 163 165 169 172 169 162 155 149 147 147 148 150 154 163 184 216 246
180 176 174 174 175 176 177 177 175 173 173 172 171 171 172 173 174 173 173 174 176 175 174 173 174 176 176 175 175 176 177 178 176 174 171 168 165 163 163 164 165 167 168 168 169 170 171 172 169 165 162 160 160 162 163 160 154 148 146 147 150 153 156 161 171 198 238 261 271
177 174 173 174 175 175 175 175 174 172 170 170 170 169 170 172 173 172 171 171 173 175 175 174 174 174 175 174 173 172 172 173 172 169 167 164 163 163 163 163 163 165 167 169 171 173 172 168 163 160 158 156 154 152 150 147 146 147 151 155 159 162 169 182 215 254 272 279 283
176 173 172 174 174 174 172 172 171 170 169 169 169 168 168 169 170 170 170 170 172 173 174 175 174 174 173 173 171 169 168 168 166 165 163 162 161 161 161 161 161 164 167 171 173 171 166 160 156 154 151 148 145 143 144 147 151 155 159 163 167 173 187 217 253 270 277 281 284
174 173 173 173 173 172 170 169 168 167 167 167 167 166 166 167 168 168 169 170 170 171 172 173 173 173 172 171 170 167 164 163 161 161 160 159 158 158 158 159 160 163 167 169 167 161 156 151 148 146 143 140 140 142 147 154 159 162 164 166 168 175 194 227 253 267 275 280 283
172 172 171 171 169 168 166 164 164 164 164 164 163 163 163 163 165 166 167 167 168 169 170 170 170 170 170 169 167 164 161 158 157 156 156 155 154 154 155 158 161 164 164 161 156 151 147 144 142 140 139 140 143 148 154 160 162 162 161 160 160 164 176 196 222 252 277 287 287
170 169 167 166 166 164 163 162 162 161 161 161 161 160 160 161 162 163 164 165 166 167 167 167 166 166 165 164 163 160 157 154 152 151 151 151 151 153 156 159 161 160 156 151 147 143 141 140 140 141 143 145 149 152 156 158 157 156 154 153 153 157 161 173 207 266 288 290 289
168 166 164 162 162 161 160 159 159 158 158 159 159 159 159 160 160 161 161 162 163 163 163 162 161 160 159 157 157 156 154 152 150 148 148 149 152 155 157 158 155 151 146 142 139 139 139 141 143 146 148 151 152 153 153 152 151 151 152 154 158 163 174 210 261 278 283 285 287
164 162 160 159 159 158 157 156 156 157 157 157 157 157 157 158 158 158 158 158 158 158 158 156 155 154 153 153 153 152 150 149 148 148 149 150 152 154 154 150 145 140 136 135 136 138 141 145 148 151 152 153 152 150 148 147 149 153 157 166 180 203 234 258 272 279 283 287 293
158 156 155 156 155 154 154 155 155 155 154 154 153 153 154 154 154 154 152 151 151 151 151 150 149 148 149 150 150 148 147 146 147 149 150 152 151 149 145 140 135 132 131 132 135 139 143 148 151 153 153 151 150 148 146 148 153 163 178 200 226 248 263 273 282 289 296 302 306
152 152 152 153 152 151 152 152 152 152 151 151 150 151 151 150 149 148 147 146 145 145 144 143 144 145 145 145 145 145 145 146 148 150 151 150 147 142 137 133 129 129 131 133 134 137 141 146 149 150 150 149 149 150 154 160 171 189 216 243 263 277 287 296 304 311 315 314 309
149 150 150 148 147 147 147 148 147 147 147 147 147 148 147 144 143 142 142 141 141 140 139 139 140 141 141 141 142 144 145 147 148 149 147 144 139 135 131 129 129 130 133 134 134 135 136 139 142 145 147 149 153 159 166 176 192 224 272 299 311 318 323 328 331 329 318 296 279
147 146 145 143 142 142 142 142 142 143 143 143 143 143 141 139 139 139 138 138 137 137 137 138 138 138 138 140 142 144 145 146 146 144 140 136 132 130 129 129 131 132 133 133 132 131 130 133 138 143 148 153 159 163 166 161 110 12 5 1 358 359 2 8 5 229 220 249 276
141 140 139 137 137 136 136 137 138 139 139 139 138 137 136 135 135 135 136 136 135 136 138 138 138 137 139 141 143 144 144 142 140 137 134 131 131 131 131 132 132 132 132 131 129 129 130 135 140 145 148 151 150 141 115 73 45 34 31 32 37 50 76 117 147 160 197 313 321
134 133 131 130 129 129 130 132 132 133 133 133 132 132 131 131 132 133 134 134 135 135 136 137 137 138 140 142 143 142 139 136 133 132 131 131 132 132 132 132 132 132 132 130 128 129 132 137 141 141 138 133 120 99 74 56 46 43 46 59 81 103 119 127 120 93 49 22 5
127 126 124 122 122 123 125 126 126 127 127 126 126 126 126 127 128 129 130 131 133 134 135 137 138 139 140 141 139 136 133 132 131 131 132 132 132 132 131 131 131 132 132 130 128 128 130 133 133 130 123 112 96 77 61 50 46 49 63 87 108 120 119 108 90 71 51 29 12
120 119 118 117 117 119 120 121 122 122 121 120 120 121 122 123 123 124 126 129 132 134 137 139 141 141 141 139 136 133 131 131 132 132 133 134 133 132 131 130 131 132 131 129 127 127 128 128 124 118 108 95 78 63 54 50 52 64 88 109 117 115 108 95 77 55 35 20 7
115 114 113 113 114 115 116 117 118 118 117 116 116 118 121 122 123 124 127 130 133 135 137 139 140 139 138 136 134 133 132 132 134 135 136 136 135 133 130 129 130 132 132 129 128 128 128 125 118 106 91 76 63 56 53 57 70 89 106 114 113 107 96 80 59 39 23 13 4
113 112 112 112 112 113 114 115 116 116 115 116 117 119 121 123 126 129 132 135 136 136 135 136 135 134 132 131 132 133 135 136 137 138 139 139 136 133 131 130 131 131 132 131 131 131 130 122 107 89 75 66 62 60 63 73 88 101 109 112 108 99 85 67 48 33 20 12 4
114 115 114 113 112 112 114 115 116 116 116 117 119 121 124 126 128 132 136 138 136 134 133 132 131 130 130 131 132 135 138 140 140 140 139 139 137 135 133 133 133 132 132 133 133 132 125 110 91 78 70 67 68 71 77 86 96 105 110 111 104 93 76 56 39 28 19 13 7
115 118 118 116 114 115 115 117 117 117 118 119 122 124 127 128 129 132 135 137 135 132 131 131 130 131 133 134 136 137 139 141 141 140 140 140 140 140 138 136 135 133 132 131 130 126 115 99 87 78 73 73 75 78 83 90 100 107 111 108 99 85 65 45 30 21 15 12 10
116 118 119 118 117 117 118 118 119 120 121 123 124 126 128 128 129 131 134 136 135 133 132 131 131 133 135 137 137 138 140 141 142 143 143 143 145 146 144 139 135 131 129 126 125 120 112 100 93 86 79 75 75 77 81 90 99 105 105 99 86 68 50 35 24 17 12 8 6
115 117 118 118 119 119 120 120 121 122 124 125 126 127 128 128 130 131 133 135 135 134 133 133 133 135 136 137 138 138 140 141 143 145 146 147 148 148 144 137 131 126 123 122 121 120 117 111 105 95 83 76 73 73 78 85 93 96 92 82 67 52 40 30 21 15 8 2 356
114 116 117 118 120 121 121 121 123 125 127 128 128 129 130 132 132 133 133 133 133 133 133 133 134 135 136 136 137 138 139 141 143 146 147 147 146 142 137 130 125 120 118 117 118 122 125 124 118 102 85 77 73 72 73 76 82 84 78 66 53 41 33 25 17 10 3 357 351
Height
735 736 737 738 739 740 741 742 743 743 744 744 745 746 747 749 750 752 753 754 755 756 757 759 760 761 763 764 765 767 768 769 770 772 774 776 777 778 779 779 781 783 784 786 788 791 793 794 797 799 802 804 805 806 806 806 807 807 808 808 809 809 809 809 810 811 812 813 814
733 734 735 736 737 739 739 741 741 742 743 743 744 745 745 747 748 749 751 752 753 754 756 758 759 761 762 763 764 765 766 767 769 770 772 774 776 778 779 780 781 783 785 786 788 789 791 793 795 797 800 803 804 805 806 806 807 807 807 808 808 808 808 809 809 811 812 813 814
731 732 733 734 735 737 738 739 740 740 741 742 743 743 744 745 746 748 749 751 752 754 755 757 758 759 760 761 763 764 765 766 767 768 770 771 773 776 779 781 783 784 786 786 787 789 790 791 793 795 798 800 802 804 805 806 806 807 807 807 808 808 808 808 809 810 812 813 814
729 730 731 732 733 734 735 736 737 738 739 740 741 742 743 744 746 747 749 750 752 753 754 755 757 758 759 760 762 763 764 765 766 767 769 769 771 774 777 780 783 784 785 786 787 788 789 791 792 794 796 798 800 802 804 805 806 807 807 807 807 807 808 808 809 810 811 812 813
727 728 729 729 730 731 732 733 734 735 736 738 739 741 742 744 745 747 748 749 750 752 753 754 755 757 758 759 761 762 764 765 766 767 768 769 770 773 775 779 781 783 784 785 786 787 788 789 791 792 794 796 798 800 803 804 806 807 807 807 807 807 808 808 809 810 811 812 813
725 726 726 727 728 729 730 731 732 734 735 737 739 740 741 743 744 746 747 748 749 750 752 753 754 756 757 759 760 761 763 764 765 766 767 769 770 773 775 778 779 781 782 783 784 785 787 788 789 792 794 795 798 800 802 804 805 806 807 807 807 807 807 808 809 810 811 812 813
723 724 725 726 727 728 729 730 731 733 734 736 737 739 740 742 743 744 745 746 748 749 751 752 753 754 756 757 759 760 762 763 764 765 767 768 770 772 774 776 778 779 779 781 782 783 785 786 788 790 793 795 797 799 801 803 804 805 806 806 806 806 807 808 809 810 811 812 813
722 723 724 725 726 727 728 729 731 733 734 735 736 738 739 740 742 743 744 745 747 748 749 751 752 753 754 756 758 759 760 762 763 764 766 768 770 772 774 775 776 777 778 779 780 782 784 785 787 789 792 794 797 799 801 802 804 805 805 805 805 806 807 808 809 809 811 812 814
722 723 724 724 725 726 728 729 731 732 733 734 735 737 738 739 740 742 743 744 746 748 749 750 751 752 754 755 757 758 759 760 762 764 766 768 770 772 774 774 775 776 777 778 779 781 783 785 787 789 791 794 796 798 800 801 803 804 804 804 804 806 807 808 809 810 811 813 814
721 722 723 724 725 727 729 730 731 732 733 734 735 737 738 739 740 741 742 744 745 747 748 749 750 752 754 755 756 757 758 760 761 763 765 768 770 772 773 774 774 775 776 778 779 781 783 785 787 789 792 794 796 798 799 801 803 804 804 804 805 806 807 808 809 810 812 813 814
719 720 722 724 725 727 729 730 731 732 733 734 735 737 738 739 740 741 742 744 745 746 747 748 750 751 753 754 755 757 758 759 761 764 766 768 769 771 772 773 774 775 776 777 779 781 783 785 787 790 792 794 796 797 798 799 801 803 803 804 805 806 807 808 809 810 812 813 813
719 720 722 723 725 727 728 730 731 732 733 734 735 736 737 739 739 741 742 743 745 746 747 748 750 751 752 754 755 757 758 760 762 764 765 767 768 770 771 773 774 775 776 777 779 781 784 786 788 790 792 794 795 796 797 799 800 802 803 804 805 806 807 808 809 810 811 812 812
718 719 721 722 724 726 728 729 730 732 733 734 735 736 737 738 739 741 742 743 744 745 747 749 750 751 753 754 755 757 759 760 762 764 765 766 767 769 771 772 774 774 775 777 779 782 784 786 789 790 792 793 794 796 797 798 799 801 803 804 805 806 807 808 809 810 810 811 811
718 719 719 721 723 725 727 729 730 731 733 734 735 736 737 738 739 740 742 743 744 745 747 749 751 752 753 754 755 757 758 760 762 763 764 765 766 768 770 772 773 774 775 777 779 782 784 787 789 790 791 792 794 795 796 798 799 801 803 804 805 806 807 808 809 809 810 810 810
718 718 719 720 722 724 726 728 729 731 732 733 734 735 737 738 739 740 741 743 744 746 748 749 751 752 753 754 755 757 758 759 761 763 764 764 765 767 769 771 773 774 775 777 779 782 784 786 787 789 790 792 794 795 797 798 800 802 803 804 805 806 807 807 808 809 809 809 809
718 718 718 719 721 724 726 728 729 730 732 733 734 735 736 738 739 740 741 743 744 746 748 749 750 752 753 754 756 757 759 759 761 762 763 764 765 767 769 771 773 774 775 777 779 781 783 784 786 787 789 791 794 796 798 799 800 802 803 804 805 806 806 807 807 808 808 809 809
718 718 718 719 721 723 725 727 728 730 731 732 734 735 736 737 739 740 741 743 744 745 747 749 750 751 753 754 756 757 759 759 760 762 763 764 765 767 769 770 772 774 775 776 778 779 782 784 785 787 789 791 794 796 798 800 801 802 803 804 805 805 806 806 807 807 808 808 809
719 719 719 719 721 723 725 726 728 729 731 732 734 735 736 737 738 740 741 743 744 745 747 748 750 751 753 754 756 757 758 759 760 762 763 764 766 767 769 770 772 774 775 777 778 780 782 784 786 787 789 791 793 796 798 800 801 802 803 804 804 805 805 806 806 807 807 808 808
719 719 719 720 721 723 725 726 728 729 731 732 733 734 736 737 738 740 741 743 744 745 746 748 750 751 753 754 755 757 758 759 761 762 763 764 766 767 768 769 771 774 775 777 779 781 783 784 786 788 789 791 792 795 797 799 800 801 802 803 804 804 805 805 806 806 807 807 808
719 719 719 720 722 724 725 727 728 730 731 732 733 734 736 737 738 739 741 743 744 745 747 748 749 751 753 754 756 757 759 760 762 763 764 765 767 768 769 770 772 774 776 779 781 783 784 786 787 789 790 791 792 794 796 798 799 801 802 802 803 804 804 805 805 806 806 807 807
719 719 720 721 723 724 726 727 729 730 731 732 734 734 736 737 739 740 741 743 744 746 747 748 749 751 753 754 756 758 759 761 762 764 765 766 767 769 769 771 773 775 777 780 782 783 785 786 788 789 790 791 792 794 795 798 799 800 801 802 802 803 804 804 804 805 805 806 806
719 720 721 723 724 725 727 728 729 730 732 733 734 735 736 737 739 740 741 743 744 746 747 749 750 751 753 754 756 757 759 761 763 764 765 767 768 769 771 772 774 776 779 780 782 784 785 787 788 789 790 791 792 794 795 797 799 799 800 801 801 802 803 803 804 804 805 805 806
720 721 722 724 725 726 728 729 730 731 732 734 735 736 737 738 739 741 742 743 745 746 748 749 750 752 753 755 756 758 759 761 763 765 766 768 769 771 772 774 776 778 779 781 782 784 785 787 789 789 790 791 792 794 795 797 798 799 799 800 800 801 802 803 803 804 804 804 805
721 722 724 725 726 727 729 729 730 732 733 734 736 737 738 739 740 741 742 744 745 746 748 749 751 753 754 755 757 758 759 761 763 765 767 769 770 772 774 775 777 779 780 781 782 784 785 787 788 789 790 791 792 794 795 796 797 798 798 799 800 800 801 802 802 803 803 804 805
723 724 725 726 727 728 729 730 731 733 734 735 737 738 739 740 741 742 743 744 745 747 748 750 751 753 754 756 758 759 760 762 763 765 768 769 771 773 774 776 778 779 780 782 783 784 786 787 788 789 790 791 792 794 794 795 796 797 798 799 799 800 801 801 802 802 803 804 804
724 724 726 727 728 729 730 731 732 733 734 736 737 738 739 740 741 743 744 745 746 747 749 750 752 754 755 756 758 760 761 763 764 766 768 770 772 774 775 777 778 780 781 782 784 785 787 788 789 789 790 791 792 793 794 795 796 797 798 799 799 800 800 801 802 802 803 803 803
724 725 726 728 729 729 730 732 733 734 735 736 738 739 740 741 742 743 744 745 747 748 749 751 753 754 756 757 759 760 762 764 766 768 769 771 773 774 776 778 779 780 782 783 785 786 787 788 789 790 790 791 792 794 794 795 796 797 798 799 799 799 800 800 801 801 802 802 802
725 726 727 728 729 730 731 732 734 735 736 737 738 739 740 742 743 744 745 746 748 749 750 752 754 755 757 758 760 762 763 765 767 769 770 772 774 775 777 778 780 781 783 784 785 787 788 788 789 790 791 792 793 794 794 795 796 797 798 798 799 799 799 800 800 800 801 801 801
726 727 728 729 730 731 732 733 734 735 736 738 739 740 741 743 744 745 746 748 749 750 751 753 754 756 758 759 761 763 765 767 768 770 771 773 775 776 778 779 781 782 784 785 786 787 788 788 789 790 791 792 793 794 795 795 796 797 797 798 798 798 799 799 799 800 800 801 801
727 728 729 730 731 732 733 734 735 736 737 739 739 741 742 744 745 746 747 749 750 751 752 754 755 757 759 760 762 764 766 768 769 771 772 774 776 777 779 780 782 783 784 785 786 787 788 789 789 790 791 792 793 794 794 795 795 796 796 797 797 798 798 799 799 800 800 800 800
728 729 730 731 732 733 734 735 736 737 738 739 741 742 744 745 746 747 749 749 751 752 753 754 756 758 760 762 764 765 767 769 771 772 774 775 777 779 780 781 783 784 785 786 786 787 788 789 789 790 791 792 792 793 793 794 794 795 796 797 797 798 798 799 799 799 799 799 799
729 730 731 732 733 734 735 736 737 739 740 741 742 744 745 746 748 749 749 750 751 753 754 755 757 759 761 763 765 767 768 770 772 774 775 776 778 779 780 782 783 784 785 786 787 787 788 789 789 790 791 791 792 792 793 794 794 795 796 797 797 798 798 798 798 799 799 799 799
730 731 732 733 734 735 737 738 739 740 741 743 744 745 747 748 749 750 751 752 753 754 755 757 759 760 762 764 766 768 769 771 773 774 776 777 778 779 781 782 784 784 785 786 787 787 788 789 789 790 791 791 791 792 793 794 794 795 796 796 797 797 797 798 798 798 798 798 798
731 732 733 734 735 737 739 740 741 742 743 744 746 747 748 749 750 752 753 754 755 757 758 759 760 762 763 765 767 769 770 772 774 775 777 778 779 780 781 783 784 785 786 787 787 788 788 789 789 790 790 791 791 792 793 794 794 795 795 796 796 797 797 797 797 797 798 798 798
732 733 734 735 737 738 740 741 742 743 744 745 747 748 749 751 752 754 755 756 757 759 760 761 762 764 765 766 768 769 771 773 775 776 778 779 780 781 782 783 784 785 786 787 787 788 788 789 789 790 790 791 791 792 793 794 794 795 795 795 796 796 796 796 797 797 798 798 798
733 734 735 737 738 739 741 742 743 744 745 747 748 749 751 752 754 755 756 757 759 760 761 763 764 765 766 768 770 771 773 774 776 778 779 780 781 781 782 784 785 786 787 787 788 788 788 789 789 790 790 791 792 792 793 794 794 794 795 795 795 796 796 796 797 797 798 798 798
734 735 737 738 739 741 742 743 744 745 747 748 749 751 752 754 755 756 757 758 759 761 762 764 765 766 768 769 771 773 774 776 777 778 780 781 781 782 783 784 785 786 787 787 788 788 789 789 789 790 791 791 792 793 793 794 794 794 794 795 795 796 796 797 797 797 798 798 798
736 737 738 739 741 742 743 744 746 747 748 750 751 752 754 754 756 758 759 759 760 762 764 765 767 768 769 771 772 774 776 777 778 779 780 781 782 783 784 784 785 786 787 788 788 788 789 789 790 790 791 792 792 793 793 793 794 794 794 795 795 796 796 797 797 797 797 798 798
739 739 740 741 742 743 744 746 747 749 750 751 752 754 755 756 757 759 760 761 762 763 764 766 768 769 771 772 774 775 777 779 779 780 781 782 783 784 784 785 786 786 787 788 789 789 789 790 790 791 791 792 792 793 793 793 794 794 795 795 795 796 796 797 797 797 797 798 798
741 741 742 743 744 744 746 747 749 750 751 752 753 754 756 757 759 760 761 762 763 764 765 767 769 770 772 773 775 776 778 779 780 781 782 783 784 784 785 785 786 787 788 788 789 789 790 790 791 791 792 792 792 793 793 794 794 794 795 795 796 796 796 797 797 797 797 797 798
743 744 744 744 745 746 748 749 750 751 752 753 754 756 757 758 759 761 762 764 765 766 767 769 770 772 773 774 776 777 778 780 781 782 783 784 784 785 785 786 786 787 788 789 789 790 790 791 791 791 792 792 792 793 793 794 794 794 795 795 796 796 796 797 797 797 797 797 798